Regional Weather Roundup
Issued by NWS Mobile, AL

Home | Current Version | Previous Version | Text Only | Print | Product List | Glossary On
Versions: 1 2 3 4 5 6 7 8 9 10 11 12 13 14 15 16 17 18 19 20 21 22 23 24 25 26 27 28 29 30 31 32 33 34 35 36 37 38 39 40 41 42 43 44 45 46 47 48 49 50
000
ASUS44 KMOB 182112
RWRMOB
REGIONAL WEATHER ROUNDUP
NATIONAL WEATHER SERVICE MOBILE AL
300 PM CST MON FEB 18 2019

NOTE: "FAIR" INDICATES FEW OR NO CLOUDS BELOW 12,000 FEET WITH NO
      SIGNIFICANT WEATHER AND/OR OBSTRUCTIONS TO VISIBILITY.

  * THESE STATIONS ARE PART OF THE UNIVERSITY OF SOUTH ALABAMA
    MESONET AND ARE NOT UNDER NWS OR FAA QUALITY CONTROL.

ALZ061>064-182200-
COASTAL ALABAMA

CITY           SKY/WX    TMP DP  RH WIND       PRES   REMARKS
MOBILE REG APT CLOUDY    54  46  74 N6        30.16S
BROOKLEY FIELD CLOUDY    57  46  66 NE10      30.16F
USA CAMPUS*      N/A     52  46  82 NE7       30.17R
DOG RIVER*       N/A     54  46  76 NE3       30.18S


CITY           SKY/WX    TMP DP  RH WIND       PRES   REMARKS
GULF SHORES    CLOUDY   N/A N/A N/A NE8G17    30.14S

$$

ALZ051>060-182200-
INTERIOR SOUTHWEST AND SOUTH CENTRAL ALABAMA

CITY           SKY/WX    TMP DP  RH WIND       PRES   REMARKS
GREENVILLE     CLOUDY    60  30  32 N7        30.18R
EVERGREEN      CLOUDY    60  44  55 NE5       30.18S
ATMORE*          N/A     54  46  76 N6        30.17F
ANDALUSIA/OPP  CLOUDY    58  44  60 NE5       30.17S
ANDALUSIA*       N/A     54  45  71 NE3       30.18R
FLORALA APT    CLOUDY    55  44  66 NE7       30.19S
FLORALA*       NOT AVBL

$$

FLZ001>006-182200-
WESTERN FLORIDA PANHANDLE

CITY           SKY/WX    TMP DP  RH WIND       PRES   REMARKS
PENSACOLA      CLOUDY    57  41  55 N10G21    30.13F
NAS PENSACOLA  CLOUDY    58  42  55 NE14      30.13S
MILTON         CLOUDY    54  45  71 VRB7      30.16R
WHTNG S FIELD  CLOUDY    55  44  66 NE13      30.16R


CITY           SKY/WX    TMP DP  RH WIND       PRES   REMARKS
JAY*             N/A     52  50  93 NE3         N/A
DUKE FIELD     CLOUDY    56  44  62 NE9       30.14S
CRESTVIEW      CLOUDY    56  46  69 VRB6      30.17R
VALPARAISO     CLOUDY    59  46  62 NE15      30.12S
DESTIN         CLOUDY    60  43  53 N14G21    30.13S

$$

MSZ076-079-182200-
INTERIOR SOUTHEAST MISSISSIPPI

CITY           SKY/WX    TMP DP  RH WIND       PRES   REMARKS
LEAKESVILLE*     N/A     55  36  47 E3        30.19S
AGRICOLA*        N/A     55  41  58 NE7       30.15S

$$

MARINE OBSERVATIONS

STATION/POSITION TIME  TEMP    WIND        PRES    WAVE
                       AIR SEA DIR/SP/G            HT/PER
                 (UTC) (F)     (DEG/KT/KT) (MB)    (FT/S)
PETIT BOIS ISLND 2042   55      40/ 20/ 25 1021.3F
GRAND BAY        1945   53      30/ 11     1022.0F
CEDAR POINT      2030   54      20/ 18     1020.3R
E DAUPHIN ISLAND 2000   55      30/ 20/ 23 1020.5F
USCG MOBILE BAY  2042   55 60   50/  9/ 11 1021.3F
STATE DOCKS      2042   55 57              1021.1F
WEEKS BAY        1930   55                 1021.0S
FORT MORGAN      2042   56      50/ 23/ 26 1020.3R
12 S ORANGE BCH  2050   60      30/ 19/ 23 1020.1    4/ 4
PENSACOLA BAY    2042   57 63   20/  9/ 15 1020.5F
64 S DAUPHIN ISL 2050           40/ 21/ 25 1019.4R   8/ 7

$$

SELECTED LOCATIONS ACROSS THE REGION

CITY           SKY/WX    TMP DP  RH WIND       PRES   REMARKS
NEW ORLEANS    CLOUDY    56  49  77 NE6       30.14S
GULFPORT       LGT RAIN  55  42  61 N9        30.15R
PASCAGOULA AP  CLOUDY    56  44  64 NE6       30.15S
PASCAGOULA*      N/A      1 -35  17 N6        30.15S WCI -10
HATTIESBURG    CLOUDY    56  34  43 NE9       30.21R
LAUREL         LGT RAIN  50  40  68 NE7       30.22R
MERIDIAN       FAIR      56  31  38 NE12      30.24S
JACKSON        PTSUNNY   56  37  49 N13       30.24S
MONTGOMERY     PTSUNNY   63  30  28 N7        30.20R
TROY           CLOUDY    59  40  49 NE5       30.19R
ASHFORD*         N/A     54  45  71 NE3       30.18R
DOTHAN         CLOUDY    57  46  66 NE6       30.20F
PANAMA CITY    CLOUDY    61  47  59 N16       30.12S

$$





USA.gov is the U.S. government's official web portal to all federal, state and local government web resources and services.